Location: Recife
(8.0585°S, 34.8848°W)
Time: 20:35:51
(UTC-03:00)

Explorer 11/Cluster Stage 4 - Pass Details

Date: 22 April 2026
Orbit: 463 x 1174 km, 28.8° (Epoch: 16 May)

Event Time Altitude Azimuth Distance (km) Brightness Sun altitude
Rises 18:34:23 0° 269° (W) 3,847 11.6 -20.3°
Reaches altitude 10° 18:37:53 10° 256° (WSW) 2,785 10.3 -21.1°
Maximum altitude 18:43:09 24° 205° (SSW) 1,798 8.5 -22.4°
Enters shadow 18:45:59 17° 168° (SSE) 2,010 8.4 -23.1°
Drops below altitude 10° 18:47:44 10° 153° (SSE) 2,389 - -23.5°
Sets 18:50:30 0° 138° (SE) 3,187 - -24.2°
